www.pogodaiklimat.ru

АРХИВ ПОГОДЫ в Краснодаре

Время (UTC), дата Ветер
(напр.,м/с)
 
Видим.   Явления Облачность Т
(С)
Тd
(С)
f
(%)
Тe
(С)
Тes
(С)
Комфортность P
(гПа)
Po
(гПа)
Тmin
(С)
Tmax
(С)
R
(мм)
S
(см)
15 24.04 В 3 10 км 10/4 1000 м
[Sc Ac As]
+23.6 +5.8 32 +24 +24 комфорт 1002.3 998.9 +24.7
18 24.04 СВ 2 10 км 9/8 1000 м
[Sc Ac trans]
+20.5 +6.0 39 +22 +22 комфорт 1002.2 998.7
21 24.04 В 1 10 км 8/0
[Ac trans Ci fib]
+16.3 +7.5 56 +17 +17 тепло 1000.8 997.3
00 25.04 СВ 1 10 км 9/3 1000 м
[Sc Ci fib]
+15.2 +8.2 63 +16 +16 тепло 999.6 996.0
03 25.04 ЮВ 2 10 км 10/5 600 м
[Cb cap Ac trans Ci fib]
+14.0 +9.5 74 +14 +14 тепло 998.2 994.7 +13.4
06 25.04 В 2 10 км 10/6 600 м
[Cb cap Ci ing]
+18.5 +9.0 54 +19 +22 тепло 996.3 992.8
09 25.04 Ю 3
{14}
10 км {ливн. осадки} 8/3 1000 м
[Sc Ac trans Ci fib]
+23.5 +7.3 35 +24 +30 комфорт 998.5 995.1
12 25.04 ЮЗ 5-10
{14}
10 км {ливн. осадки} 3/0
[Ac trans]
+24.2 +5.0 29 +24 +29 комфорт 999.3 995.8
15 25.04 ЮЗ 3
{11}
10 км 4/1 1000 м
[Sc Ac trans]
+21.1 +6.8 39 +22 +23 комфорт 1001.3 997.8 +25.1 0.0
18 25.04 Ю 1 10 км 9/3 1000 м
[Sc Ci fib]
+16.1 +7.6 57 +17 +17 тепло 1003.8 1000.3
21 25.04 Ю 3 10 км 3/0
[Ac trans]
+13.5 +8.8 73 +12 +12 по сезону 1005.7 1002.1
00 26.04 Ю 1 10 км ясно +12.4 +9.2 81 +12 +12 тепло 1005.9 1002.3
03 26.04 Ю 2 10 км 3/0
[Ci fib]
+12.5 +9.2 80 +12 +12 по сезону 1006.2 1002.6 +12.0
06 26.04 Ю 3 10 км 8/4 1000 м
[Sc Ac cast]
+16.9 +9.9 63 +17 +19 тепло 1006.8 1003.3
09 26.04 Ю 3 10 км 8/4 1000 м
[Sc diur, vesp Ac cast]
+22.1 +8.5 42 +23 +28 комфорт 1006.7 1003.3
12 26.04 Ю 3
{10}
10 км 6/6 1000 м
[Cu med, cong]
+24.1 +8.6 37 +25 +29 комфорт 1006.0 1002.5
15 26.04 В 2 10 км 9/1 1000 м
[Sc diur, vesp Ac trans Ci fib]
+23.5 +9.6 41 +24 +25 комфорт 1005.8 1002.3 +24.9
18 26.04 В 2 10 км 1/1 1000 м
[Sc diur, vesp]
+19.1 +11.8 63 +21 +21 комфорт 1006.1 1002.6
21 26.04 В 2 10 км 9/9 1000 м
[Sc]
+17.7 +11.4 67 +18 +18 тепло 1005.9 1002.4
00 27.04 Ю 2 10 км 10/10 1000 м
[Sc]
+17.7 +10.1 61 +18 +18 тепло 1005.5 1002.0
03 27.04 ЮЗ 4 10 км 8/6 600 м
[Cb cap Ac trans]
+16.0 +10.4 69 +15 +15 тепло 1008.1 1004.6 +16.0
06 27.04 ЮЗ 3
{10}
10 км 6/4 1000 м
[Cb cap Ac trans]
+15.6 +9.6 67 +15 +18 тепло 1010.0 1006.4 +15.0
09 27.04 Ю 6-11
{13}
10 км 3/3 1000 м
[Cu hum]
+18.1 +5.1 42 +18 +22 тепло 1011.1 1007.6
12 27.04 ЮЗ 5-11
{15}
10 км 4/4 1000 м
[Cu med, cong]
+16.9 +6.1 49 +16 +20 по сезону 1013.5 1009.9
15 27.04 ЮЗ 4
{13}
10 км 6/6 600 м
[Cb cap]
+15.3 +6.2 55 +14 +15 по сезону 1014.6 1011.0 +18.8
18 27.04 Ю 4
{10}
10 км 10/8 600 м
[Cb cap Ac und]
+13.2 +6.3 63 +12 +12 по сезону 1016.7 1013.0
21 27.04 Ю 3
{10}
10 км 8/8 1000 м
[Sc]
+12.2 +5.7 64 +11 +11 по сезону 1017.5 1013.8
00 28.04 ЮЗ 2 10 км 3/3 1000 м
[Sc]
+10.5 +5.8 73 +9 +9 по сезону 1017.6 1013.9
03 28.04 Ю 1 10 км 9/9 1000 м
[Sc]
+11.2 +6.6 73 +11 +11 по сезону 1018.4 1014.7 +10.3
06 28.04 З 2 10 км 4/4 1000 м
[Sc diur, vesp]
+14.6 +5.9 56 +14 +20 по сезону 1018.5 1014.9
09 28.04 З 3 10 км 1/1 1000 м
[Sc diur, vesp]
+18.2 +3.7 38 +18 +31 опасность
простуды
1018.3 1014.8
12 28.04 СЗ 2 10 км 1/1 1000 м
[Cu hum]
+20.8 +2.8 30 +22 +32 комфорт 1018.1 1014.5
15 28.04 СЗ 2 10 км 3/3 1000 м
[Sc diur, vesp]
+19.8 +2.9 33 +21 +22 комфорт 1018.0 1014.4 +21.3
18 28.04 СЗ 2 10 км ясно +14.8 +3.9 48 +15 +15 тепло 1019.6 1016.0
21 28.04 СЗ 2 10 км ясно +11.6 +6.3 70 +11 +11 по сезону 1020.0 1016.3
00 29.04 З 1 10 км ясно +10.0 +6.6 79 +10 +10 по сезону 1020.0 1016.3
03 29.04 З 1 10 км 3/0
[Ac trans]
+9.1 +6.0 81 +9 +9 по сезону 1020.5 1016.9 +8.5
06 29.04 З 1 10 км 8/0
[Ac trans Ci fib]
+15.5 +7.6 59 +16 +24 тепло 1021.1 1017.5
09 29.04 ЮВ 2 10 км 8/8 1000 м
[Cu Sc Ac trans]
+19.6 +5.5 40 +21 +24 комфорт 1020.4 1016.8
12 29.04 В 1 10 км 6/6 1000 м
[Cu med, cong]
+20.2 +7.2 43 +22 +28 комфорт 1019.6 1016.1
15 29.04 штиль 0 10 км 3/3 1000 м
[Cu med, cong]
+19.4 +6.3 42 +20 +21 тепло 1018.8 1015.3 +21.3
18 29.04 З 1 10 км ясно +15.7 +7.7 59 +16 +16 тепло 1019.1 1015.5
21 29.04 З 1 10 км 3/3 1000 м
[Cu med, cong]
+12.8 +6.7 66 +13 +13 по сезону 1019.1 1015.5
00 30.04 З 1 10 км ясно +10.8 +7.1 78 +11 +11 по сезону 1018.2 1014.6
03 30.04 штиль 0 10 км 6/0
[Ci fib]
+9.7 +7.0 83 +9 +9 по сезону 1017.9 1014.2 +9.5
06 30.04 СВ 1 10 км 9/3 1000 м
[Sc Ac cast Ci fib]
+15.5 +8.7 64 +16 +20 тепло 1017.9 1014.3
09 30.04 СВ 2 10 км 9/8 1000 м
[Cu med, cong Ci fib]
+20.5 +8.7 47 +22 +26 комфорт 1016.7 1013.2
12 30.04 В 1 10 км 10/8 1000 м
[Cu med, cong Ac trans Ci fib]
+22.3 +6.7 36 +23 +24 комфорт 1015.6 1012.1
15 30.04 ЮЗ 1 10 км 9/5 1000 м
[Cb cap Ac trans Cc]
+21.5 +4.7 33 +22 +22 комфорт 1015.1 1011.6 +23.5
18 30.04 С 1 10 км 8/3 1000 м
[Cb cap Ac trans Ci fib]
+17.1 +7.3 52 +18 +18 тепло 1016.8 1013.2
21 30.04 З 1 10 км 8/6 600 м
[Cb cap Ci fib]
+15.2 +7.3 59 +16 +16 тепло 1016.8 1013.2
00 1.05 З 1 10 км 6/0
[Ac trans Ci fib]
+12.6 +8.5 76 +13 +13 тепло 1017.1 1013.5
03 1.05 З 1 10 км 4/3 1000 м
[Sc diur, vesp Ac trans Ci fib]
+11.3 +8.6 83 +11 +11 по сезону 1018.0 1014.3 +11.3
06 1.05 З 1 10 км 3/3 1000 м
[Cu hum Ac cast]
+16.6 +9.3 62 +18 +25 тепло 1018.8 1015.2
09 1.05 З 2 10 км 4/0 1000 м
[]
+20.0 +7.1 43 +21 +35 комфорт 1018.6 1015.0
12 1.05 СЗ 2 10 км 6/6 1000 м
[Cb cap]
+21.3 +5.7 36 +22 +27 комфорт 1018.2 1014.7

 

Местоположение метеостанции Краснодар (Краснодарский край, Россия): широта 45.03 долгота 39.15 высота над уровнем моря 34 м.

В архиве по умолчанию представлена погода в Краснодаре за последнюю неделю. Архивные данные за месяц целиком и за предыдущие месяцы, начиная с января 2011 года, Вы можете получить, выбрав интересующий диапазон дат из раскрывающегося списка и нажав кнопку "Ввод!".

Внимание! Время в таблицах - всемирное. Для получения местного времени необходимо прибавить поправку, которая в Краснодаре равна 3 ч.

Ветер - указаны скорость ветра в м/с - средняя за 10 мин, порывы в срок и между сроками (в фигурных скобках) и направление, откуда дует ветер: С - северный, СВ - северо-восточный, В - восточный, ЮВ - юго-восточный, Ю - южный, ЮЗ - юго-западный, З - западный, СЗ - северо-западный.
Видимость - горизонтальная дальность видимости в метрах или километрах. При видимости от 1 до 10 км при отсутствии осадков обычно наблюдается дымка, при ухудшении видимости до 1 км и менее - туман. В сухую погоду видимость может ухудшаться дымом, пылью или мглою.
Явления - указаны атмосферные явления, наблюдавшиеся в срок или в последний час перед сроком; фигурными скобками обозначены явления, наблюдавшиеся между сроками (за 1-3 часа до срока); квадратными скобками обозначены град или гололедные отложения с указанием их диаметра в мм.
Облачность - указаны через наклонную черту общая и нижняя облачность в баллах и высота нижней границы облаков в метрах; квадратными скобками обозначены формы облаков: Ci - перистые, Cs - перисто-слоистые, Cc - перисто-кучевые, Ac - высококучевые, As - высокослоистые, Sc - слоисто-кучевые, Ns - слоисто-дождевые, Cu - кучевые, Cb - кучево-дождевые. Подробнее классификацию облаков см. в Атласе облаков (PDF).
T - Температура воздуха - температура, измеренная на высоте 2 м над землей.
Td - Температура точки росы - температура, при понижении до которой содержащийся в воздухе водяной пар достигнет насыщения.
f - Относительная влажность воздуха - влажноcть воздуха, измеренная на высоте 2 м над землей.
Te - Эффективная температура - температура, которую ощущает одетый по сезону человек в тени. Характеристика душности погоды. При расчете учитывается влияние влажности воздуха и скорости ветра на теплоощущения человека.
Tes - Эффективная температура на солнце - температура, которую ощущает человек, с поправкой на солнечный нагрев. Характеристика знойности погоды. Зависит от высоты солнца над горизонтом, облачности и скорости ветра. Ночью, в пасмурную погоду, а также при ветре 12 м/с и более поправка равна нулю.
P - Атмосферное давление - приведенное к уровню моря атмосферное давление.
Po - Атмосферное давление - измеренное на уровне метеостанции атмосферное давление.
Tmin - Минимальная температура - минимум температуры воздуха на высоте 2 м над землей.
Tmax - Максимальная температура - максимум температуры воздуха на высоте 2 м над землей.
R - Количество осадков - Количество выпавших осадков, мм. При наведении курсора мыши на число - период времени, за который выпало указанное количество осадков.
S - Снежный покров - Высота снежного покрова, см. При наведении курсора мыши на число - состояние снежного покрова и степень покрытия местности в баллах.